Location: Abraham Lincoln Continuation High School
(33.9711°N, 117.3662°W)
Time: 13:54:14
(UTC+00:00)

CZ-2C R/B - Pass Details

Date: 21 September 2020
Orbit: 668 x 784 km, 98.2° (Epoch: 28 October)

Event Time Altitude Azimuth Distance (km) Brightness Sun altitude
Rises 10:54:31 0° 26° (NNE) 3,254 6.4 -33.4°
Reaches altitude 10° 10:57:10 10° 39° (NE) 2,332 5.7 -32.9°
Maximum altitude 11:01:31 27° 96° (E) 1,471 4.4 -32.1°
Enters shadow 11:04:19 17° 141° (SE) 1,881 4.6 -31.6°
